Location: Anciles
(42.5833°N, 0.5167°E)
Time: 07:39:25
(UTC+00:00)

Okean 1 - Pass Details

Date: 10 December 2019
Orbit: 540 x 554 km, 82.5° (Epoch: 28 January)

Event Time Altitude Azimuth Distance (km) Brightness Sun altitude
Rises 18:43:49 0° 201° (SSW) 2,700 7.3 -24.8°
Reaches altitude 10° 18:46:03 10° 208° (SSW) 1,810 6.4 -25.2°
Maximum altitude 18:49:52 44° 282° (WNW) 756 4.3 -25.9°
Enters shadow 18:50:41 39° 316° (NW) 835 4.4 -26.0°
